Flag for Saint Vincent and Grenadines Weather past 2 weeks in Kingstown, Saint Vincent and Grenadines

Now
79 °F

Passing clouds.


Feels Like: 82 °F
Forecast: 79 / 85 °F
Wind: 10 mph from East

Location: Arnos Vale

Current Time: Dec 25, 2014 at 11:04:05 PM

Latest Report: Dec 25, 2014 at 8:00 PM


Visibility: N/A

Pressure: 30.01 "Hg

Humidity: 84%

Dew point: 73 °F

Location of KingstownLocation

Historic Weather in Kingstown — Graph

°F

Kingstown temperature yesterday

Maximum temperature yesterday: 86 °F (at 11:00 AM)
Minimum temperature yesterday: 79 °F (at 6:00 AM)
Average temperature yesterday: 83 °F

Past Weeks' High & Low Weather Summary

 TemperatureHumidityPressure
High88 °F (Dec 15, 11:00 AM)89% (Dec 11, 8:00 PM)30.04 "Hg (Dec 11, 8:00 PM)
Low77 °F (Dec 14, 6:00 AM)59% (Dec 23, 2:00 PM)29.86 "Hg (Dec 13, 3:00 PM)
Average83 °F73%29.97 "Hg
* Reported Dec 10 8:00 PM — Dec 25 8:00 PM, Kingstown, Weather by CustomWeather, © 2014

Note: Actual official high and low records may vary slightly from our data, if they occured in-between our weather recording intervals... More about our weather records

Advertising

Kingstown weather history for previous 24 hours

 ConditionsComfort  
Time TempWeatherWind HumidityBarometerVisibility
8:00 PM
Dec 25
79 °FPassing clouds.10 mph84%30.01 "HgN/A
7:00 PM79 °FSprinkles. Passing clouds.10 mph84%29.98 "HgN/A
6:00 PM79 °FPassing clouds.6 mph84%29.98 "HgN/A
5:00 PM79 °FSprinkles. Broken clouds.7 mph84%29.98 "HgN/A
4:00 PM81 °FPartly sunny.9 mph79%29.98 "HgN/A
3:00 PM84 °FScattered clouds.14 mph66%29.98 "HgN/A
2:00 PM86 °FScattered clouds.14 mph66%29.98 "HgN/A
1:00 PM86 °FScattered clouds.15 mph62%30.01 "HgN/A
12:00 PM84 °FScattered clouds.13 mph66%30.04 "HgN/A
11:00 AM84 °FPartly sunny.12 mph66%30.04 "HgN/A
10:00 AM84 °FScattered clouds.10 mph70%30.04 "HgN/A
9:00 AM84 °FScattered clouds.10 mph66%30.04 "HgN/A
8:00 AM81 °FScattered clouds.6 mph79%30.01 "HgN/A
7:00 AM79 °FScattered clouds.No wind84%29.98 "HgN/A
6:00 AM77 °FPassing clouds.6 mph83%29.98 "HgN/A
11:00 PM
Dec 24
81 °FPassing clouds.7 mph79%29.98 "HgN/A
Weather by CustomWeather, © 2014

See weather overviewHow to use our weather pages